Location: T�bingen+AIT
(48.5342°N, 9.0700°E)
Time: 01:50:00
(UTC+02:00)

Cosmos 2322 Rocket - Pass Details

Date: 14 September 2017
Orbit: 834 x 850 km, 71.0° (Epoch: 23 September)

Event Time Altitude Azimuth Distance (km) Brightness Sun altitude
Rises 23:18:28 0° 336° (NNW) 3,407 6.4 -32.1°
Reaches altitude 10° 23:22:02 10° 359° (N) 2,465 5.2 -32.5°
Maximum altitude 23:25:19 15° 34° (NE) 2,095 4.4 -32.8°
Enters shadow 23:25:56 15° 42° (NE) 2,108 4.4 -32.8°
